DW8923 Weather Reports


time (UTC)temp
F
wind
direction
speed
knots
gust
knots
rain 1hr
in
rain 24hr
in
rain mn
in
humidity
%
barometer
mb
20260504211544 82 171 4.3 10.4 0.00 0.00 0.00 59 1008.5
20260504210043 82 163 7.0 12.2 0.00 0.00 0.00 57 1008.8
20260504204557 82 182 5.2 8.7 0.00 0.00 0.00 57 1009.1
20260504203041 82 140 4.3 12.2 0.00 0.00 0.00 58 1009.3
20260504201537 82 163 6.1 11.3 0.00 0.00 0.00 57 1009.5
20260504200041 82 134 4.3 10.4 0.00 0.00 0.00 57 1010.0
20260504194538 81 182 4.3 12.2 0.00 0.00 0.00 57 1010.2
20260504193031 81 130 4.3 13.9 0.00 0.00 0.00 59 1010.3
20260504191527 81 221 3.5 10.4 0.00 0.00 0.00 59 1010.7
20260504190025 80 132 4.3 9.6 0.00 0.00 0.00 61 1010.9
20260504184532 79 217 5.2 11.3 0.00 0.00 0.00 60 1011.0
20260504183019 79 184 4.3 11.3 0.00 0.00 0.00 62 1011.1
20260504181516 78 162 5.2 10.4 0.00 0.00 0.00 63 1011.5
20260504180013 78 184 5.2 12.2 0.00 0.00 0.00 62 1011.7
20260504174511 77 139 5.2 13.9 0.00 0.00 0.00 63 1012.1
20260504173009 77 198 6.1 13.9 0.00 0.00 0.00 63 1012.2
20260504171504 76 148 4.3 11.3 0.00 0.00 0.00 64 1012.6
20260504081552 63 166 2.6 8.7 0.00 0.00 0.00 77 1013.7
20260504050023 65 154 4.3 8.7 0.00 0.00 0.00 65 1016.2
20260504044523 65 202 1.7 10.4 0.00 0.00 0.00 66 1016.1
20260504043034 63 130 4.3 7.8 0.00 0.00 0.00 67 1016.3
20260504041521 61 117 1.7 4.3 0.00 0.00 0.00 70 1016.3
20260504040022 62 163 0.0 0.0 0.00 0.00 0.00 69 1016.3
20260504034520 63 163 0.0 0.0 0.00 0.00 0.00 69 1016.5
20260504033018 64 163 0.0 0.0 0.00 0.00 0.00 68 1016.5
20260504031518 65 163 0.0 0.0 0.00 0.00 0.00 63 1016.4
20260504030025 65 163 0.0 0.0 0.00 0.00 0.00 60 1016.4
20260504024517 66 163 0.0 0.0 0.00 0.00 0.00 59 1016.4
20260504023016 67 163 0.0 0.9 0.00 0.00 0.00 56 1016.3
20260504021516 68 163 0.0 0.0 0.00 0.00 0.00 55 1016.2
20260504020015 69 163 0.0 0.9 0.00 0.00 0.00 53 1016.2
20260504014519 70 163 0.0 0.0 0.00 0.00 0.00 51 1015.8
20260504013120 71 163 0.0 2.6 0.00 0.00 0.00 49 1015.7
20260504011515 72 154 0.0 3.5 0.00 0.00 0.00 47 1015.7
20260504010013 72 154 0.0 2.6 0.00 0.00 0.00 46 1015.8
20260504004512 73 138 1.7 6.1 0.00 0.00 0.00 44 1015.7
20260504003012 74 113 3.5 7.8 0.00 0.00 0.00 42 1015.7
20260504001511 74 151 1.7 6.1 0.00 0.00 0.00 43 1015.8
20260504000007 75 183 1.7 7.8 0.00 0.00 0.00 41 1016.2
20260503234507 75 144 0.9 7.0 0.00 0.00 0.00 39 1016.1
20260503233009 76 136 2.6 9.6 0.00 0.00 0.00 38 1016.4
20260503231504 77 183 2.6 8.7 0.00 0.00 0.00 36 1016.4
20260503230002 78 100 2.6 10.4 0.00 0.00 0.00 36 1016.2
20260503224607 78 174 2.6 8.7 0.00 0.00 0.00 35 1016.5
20260503223059 78 198 3.5 10.4 0.00 0.00 0.00 35 1016.6
20260503221604 79 150 3.5 9.6 0.00 0.00 0.00 33 1016.8
20260503220057 78 130 2.6 13.9 0.00 0.00 0.00 36 1016.9
20260503214558 79 155 3.5 10.4 0.00 0.00 0.00 36 1017.2
20260503213051 79 160 2.6 8.7 0.00 0.00 0.00 34 1017.5